STARLINK-1412 (45707 NORAD) Tracking and Keplerian Element Data

This shows tracking and keplerian element data for the satellite.

Feedback or suggestion? Click here.




ElementValue
Catalog45707
NameSTARLINK-1412
Epoch Orbit1080
Epoch Day219.25001157
Epoch Year2020
RAAN219.7203
Inclination53.0001
Eccentricity0.0001774
Argument of Perigee66.799
Mean Anonmoly261.7044
Mean Motion15.62752436
Decay Rate-0.0001638
L11 45707U 20035BC 20219.25001157 -.00016380 00000-0 -17340-3 0 9996
L22 45707 53.0001 219.7203 0001774 66.7990 261.7044 15.62752436 10808

Live tracking and technical data element details for STARLINK-1412 (NORAD 45707). STARLINK-1412 can be tracked NOW for your location showing map with azimuth and elevation plus other details from your city location.

Track the satellite on the map from your city or location and see movement details for azimuth, elevation, latitude, longitude, range, height, and movement on the map or in text.







IsCatalogInMostPopularTable: catalog: 45707, numindb: 10
Update: records affected: 1



GetName: 45707 STARLINK-1412

Hit Count: updated at: Sat, 08 Aug 2020 00:05:17 GMT